Regional Weather Roundup
Issued by NWS

Home | Current Version | Previous Version | Graphics & Text | Print | Product List | Glossary On
Versions: 1 2 3 4 5 6 7 8 9 10 11 12 13 14 15 16 17 18 19 20 21 22 23 24 25 26 27 28 29 30 31 32 33 34 35 36 37 38 39 40 41 42 43 44 45 46 47 48 49 50
000
ASUS44 KMEG 010010
RWRTN
TENNESSEE HOURLY STATE WEATHER ROUNDUP
NATIONAL WEATHER SERVICE MEMPHIS TN
700 PM CDT TUE SEP 30 2014

TNZ002-004-019-021-049-052-054-088>092-010100-
WEST TENNESSEE

CITY           SKY/WX    TMP DP  RH WIND       PRES   REMARKS
MEMPHIS INTL   MOCLDY    82  59  45 E6        29.86F
NWS MEMPHIS      N/A     75 N/A N/A MISG        N/A
JACKSON        CLEAR     72  63  73 CALM      29.88S
DYERSBURG      PTCLDY    73  54  49 CALM      29.88S
UNION CITY     CLEAR     72  63  73 CALM      29.88R
PARIS          CLEAR     68  57  68 CALM      29.90S
HUNTINGDON     CLEAR     71  58  63 CALM      29.89R
LEXINGTON      CLEAR     72  64  78 CALM      29.89R
SAVANNAH       PTCLDY    70  66  88 CALM      29.89S
$$

TNZ008-025-027-028-033-062-065-066-010100-
NORTH MIDDLE TENNESSEE

CITY           SKY/WX    TMP DP  RH WIND       PRES   REMARKS
NASHVILLE      MOCLDY    78  50  37 E5        29.90S
PORTLAND       CLEAR     70  54  56 CALM      29.91R
CLARKSVILLE    CLEAR     76  53  44 CALM      29.89R
LEBANON        PTCLDY    75  53  46 CALM      29.90R
SMYRNA         CLEAR     72  56  57 CALM      29.91R
MURFREESBORO   PTCLDY    78  52  40 NE5       29.90R
COOKEVILLE     CLEAR     63  57  82 CALM      29.93R
LIVINGSTON     CLEAR     67  50  54 CALM      29.95R
GALLATIN       PTCLDY    75  56  51 CALM      29.92R
CROSSVILLE     CLEAR     66  55  67 CALM      29.97R
$$

TNZ061-075-076-078-094-096-097-010100-
SOUTH MIDDLE TENNESSEE

CITY           SKY/WX    TMP DP  RH WIND       PRES   REMARKS
LEWISBURG      PTCLDY    71  61  70 CALM      29.90R
FAYETTEVILLE     N/A     72  57  60 NE3       29.91S
TULLAHOMA      CLEAR     70  61  73 CALM      29.93S
WINCHESTER     CLEAR     70  61  73 CALM      29.92R
MCMINNVILLE    CLEAR     70  61  73 CALM      29.93R
COLUMBIA       CLEAR     72  61  68 CALM      29.89R
SHELBYVILLE    CLEAR     75  55  50 NE5       29.92R
$$

TNZ017-018-042-046-047-010100-
NORTHEAST TENNESSEE

CITY           SKY/WX    TMP DP  RH WIND       PRES   REMARKS
TRI CITIES     PTCLDY    68  56  65 NW3       29.94R
ELIZABETHTON   PTCLDY    63  57  82 CALM      29.95R
$$

TNZ012-013-036-069-073-074-010100-
CENTRAL EAST TENNESSEE

CITY           SKY/WX    TMP DP  RH WIND       PRES   REMARKS
KNOXVILLE      CLEAR     75  57  53 CALM      29.91R
OAK RIDGE      CLEAR     70  63  78 CALM      29.94R
GATLINBURG     CLEAR     70  55  60 CALM      29.92R
MORRISTOWN     CLEAR     72  55  56 NW3       29.95R
$$

TNZ083-085-099-010100-
SOUTHEAST TENNESSEE

CITY           SKY/WX    TMP DP  RH WIND       PRES   REMARKS
CHATTANOOGA    PTCLDY    76  61  59 CALM      29.90R
$$

SKY/WX REPORTED AS FAIR MEANS FEW OR NO CLOUDS BELOW
12 THOUSAND FEET.




USA.gov is the U.S. government's official web portal to all federal, state and local government web resources and services.